Wind_Speed
37 37 38 38 37 34 30 27 25 24 24 23 23 22 21 21 21 22 24 24 25 26 26 27 27 28 29 28 27 26 25 24 22 21 19 18 18 18 17 15 14 14 15 15 14 13 14 14 15 14 12 11 12 10 8 8 8 8 8 9 9 10 11
36 35 37 38 38 35 30 27 26 24 23 23 22 22 22 21 21 21 21 21 23 24 25 26 27 27 28 28 27 26 26 24 22 21 20 19 18 18 17 16 15 15 16 16 15 15 15 16 16 15 13 11 12 11 9 9 10 10 11 12 12 12 12
34 33 36 36 35 33 29 28 26 24 23 23 22 23 22 22 21 20 20 19 20 22 23 25 26 26 27 28 28 27 26 24 23 22 21 19 19 18 18 18 17 17 17 17 17 16 16 16 16 15 13 11 12 13 11 10 10 11 13 14 14 14 14
32 32 36 36 33 30 27 26 25 24 25 23 22 23 23 22 22 21 21 20 20 21 22 22 23 24 26 27 27 26 25 25 23 22 21 20 19 19 20 19 19 18 18 18 18 17 17 16 16 15 13 11 12 13 13 13 12 12 14 15 16 16 17
33 33 37 38 36 30 26 26 25 24 26 25 23 23 23 23 23 24 23 22 21 20 19 20 21 23 24 25 26 26 25 24 23 22 22 22 21 21 21 21 20 19 19 19 18 17 16 15 14 14 12 11 12 13 14 14 14 14 14 15 17 18 18
32 35 38 38 36 30 24 24 25 25 26 26 25 24 24 25 25 25 24 23 22 21 20 21 22 23 23 24 25 25 25 25 24 24 23 23 22 22 22 21 21 20 19 19 18 17 15 14 13 13 12 12 12 13 14 15 15 16 16 16 18 19 19
31 33 38 38 36 29 24 24 26 25 25 26 26 26 26 26 26 25 25 25 24 23 23 23 24 23 23 24 24 25 25 25 25 25 24 24 23 22 22 22 22 21 20 20 18 17 15 14 12 12 12 12 13 13 13 14 16 17 17 17 18 19 21
31 30 34 37 35 29 26 28 28 27 26 26 27 28 28 28 27 26 26 26 26 25 26 25 24 23 23 24 24 25 25 26 26 26 25 25 24 23 23 23 22 21 21 20 18 17 16 14 13 13 13 12 12 13 13 14 16 17 18 18 18 20 22
33 28 30 30 29 28 28 28 27 26 27 28 28 29 30 30 28 26 25 26 27 27 26 25 24 23 23 23 24 25 25 26 26 26 26 25 25 24 23 23 22 21 21 19 18 18 17 15 14 14 13 13 12 13 13 14 15 17 18 19 20 21 23
36 29 27 26 25 25 27 26 26 27 28 28 30 31 33 32 29 26 26 26 28 28 27 26 24 23 23 23 24 25 25 26 27 27 27 26 25 25 24 23 23 22 20 19 19 19 17 16 16 15 14 13 13 13 13 14 15 17 18 20 22 23 24
39 33 28 28 27 26 26 27 27 29 28 27 29 31 33 33 29 27 28 27 28 29 29 28 27 25 24 24 24 25 26 27 28 27 27 26 25 25 25 24 24 22 20 19 19 18 17 17 17 15 14 14 13 13 13 14 15 16 18 20 22 23 24
41 36 30 28 30 30 28 28 26 27 29 28 29 31 32 31 30 29 29 28 29 30 31 31 30 28 27 26 25 25 26 27 28 28 27 26 26 25 25 25 24 23 21 20 19 18 18 18 17 16 15 14 14 14 13 14 15 16 17 19 21 23 24
41 35 31 29 32 33 30 28 26 26 30 31 30 31 31 30 29 30 30 30 30 31 32 32 32 31 29 28 27 26 26 27 28 27 26 26 26 26 26 25 24 23 22 21 20 20 19 18 17 16 15 15 15 15 14 15 15 16 17 18 20 22 24
41 33 32 32 34 35 32 30 28 26 29 32 31 31 30 29 29 30 31 31 31 32 33 32 33 33 32 30 29 27 27 27 27 27 26 25 26 26 26 26 25 24 23 22 22 21 20 18 17 17 17 16 16 15 15 15 15 15 16 18 20 23 25
39 37 36 35 36 36 35 34 31 27 28 32 32 31 30 29 29 31 32 32 33 33 33 32 33 35 35 33 31 28 27 27 27 27 27 27 27 27 27 26 26 25 24 24 23 21 20 19 19 19 18 17 16 15 15 15 14 15 16 18 21 24 25
37 39 37 34 32 32 33 33 32 29 30 33 33 31 30 31 31 31 32 32 33 34 34 34 34 35 36 35 32 30 29 28 28 27 28 28 29 29 28 27 26 26 26 25 24 22 21 20 20 19 17 16 15 15 15 14 14 15 17 19 21 24 24
37 39 37 34 31 29 28 29 29 29 31 33 32 30 30 30 30 29 30 31 32 33 34 34 35 35 37 35 34 33 31 30 29 29 29 29 30 30 29 28 27 27 27 26 25 24 23 22 21 19 17 16 16 16 15 14 15 16 17 19 21 23 23
28 30 33 34 32 29 28 28 27 29 33 33 30 29 29 29 27 27 28 30 31 31 33 34 35 36 37 36 36 36 33 32 32 31 30 30 31 31 30 29 29 29 29 28 27 25 24 23 21 19 18 17 17 16 14 14 15 16 17 20 22 23 24
20 21 23 23 21 21 24 28 27 28 32 34 31 29 29 28 27 28 28 29 29 31 34 35 35 36 37 37 38 37 35 33 34 33 32 31 31 31 31 31 31 31 30 29 27 26 26 24 22 20 19 18 17 15 14 14 16 17 18 21 22 23 25
20 20 22 22 20 18 19 23 28 29 31 33 33 29 27 27 28 28 28 27 28 30 33 35 36 37 38 38 39 38 36 35 35 35 34 33 32 32 32 33 33 32 30 29 28 27 26 24 22 21 19 18 17 15 14 15 16 17 19 21 23 24 26
23 22 23 24 26 25 23 24 28 30 31 32 32 28 27 29 30 29 28 29 29 30 32 35 38 38 38 39 40 39 38 37 36 36 36 35 34 33 33 34 34 33 31 30 29 28 26 24 22 21 20 19 17 16 15 15 16 17 19 22 24 26 29
20 22 22 23 25 28 28 27 28 30 32 32 31 29 28 28 29 30 29 31 33 33 33 34 38 40 40 40 40 40 39 38 37 37 38 38 37 35 35 35 34 33 32 31 30 28 26 25 23 22 21 19 17 16 16 15 15 17 20 23 26 28 30
16 17 18 20 21 25 28 29 29 31 32 33 32 30 28 26 27 29 29 31 35 37 35 35 37 39 41 41 41 40 40 39 38 38 39 39 38 37 36 35 34 33 32 31 30 29 26 25 23 22 21 19 18 18 17 16 16 17 20 23 27 30 31
21 21 21 20 18 21 25 27 29 32 34 36 35 33 31 30 30 31 31 33 36 38 38 37 36 37 38 39 40 41 41 39 39 39 40 40 39 38 37 36 35 33 32 32 30 28 26 25 24 23 22 20 19 19 17 15 15 17 20 24 27 31 33
22 23 24 24 22 22 24 25 25 28 31 34 35 34 34 34 34 33 33 35 37 39 40 39 37 36 35 36 37 40 41 40 39 40 41 41 40 39 38 37 36 34 32 31 30 29 27 26 26 25 23 21 20 18 16 15 15 17 21 24 28 32 35
23 24 26 27 27 26 27 27 27 28 29 30 30 31 33 35 35 34 34 36 39 40 39 38 36 34 32 32 34 38 41 42 40 41 42 42 42 41 40 39 37 35 33 32 32 31 28 27 27 26 24 22 20 18 16 16 17 20 23 27 30 32 34
27 25 25 27 29 31 32 33 34 33 33 31 28 28 32 35 37 38 38 38 40 40 38 36 35 32 30 30 30 33 39 43 43 42 42 43 43 43 42 41 39 36 35 34 34 32 30 29 28 27 25 23 20 18 18 20 21 23 25 27 28 29 32
32 29 26 25 27 30 32 35 37 39 39 37 34 32 33 34 36 40 42 43 44 44 41 38 36 35 35 35 34 33 35 41 45 44 43 44 45 45 43 41 40 38 37 37 35 33 31 30 29 28 27 23 21 20 21 22 24 25 26 25 25 27 29
32 33 32 30 28 28 30 32 35 37 38 35 33 33 36 37 37 38 41 43 44 45 45 43 42 41 41 41 40 38 36 38 43 47 46 45 45 44 43 41 40 39 39 38 36 34 32 31 31 30 26 23 21 22 23 24 26 27 27 25 24 26 27
34 34 34 34 32 31 32 34 35 37 35 32 29 29 32 35 36 39 43 44 43 44 46 48 48 48 47 45 44 42 40 40 41 45 48 47 44 43 42 40 39 38 39 38 36 34 33 33 32 29 26 23 22 22 24 26 27 27 25 24 24 25 25
36 36 37 37 35 34 34 35 37 37 36 35 34 32 31 31 33 38 44 47 47 46 47 50 52 52 50 48 47 45 44 43 42 43 46 47 45 42 41 40 38 38 39 38 36 35 35 34 32 28 26 24 23 23 25 26 25 24 24 25 25 24 24
33 36 37 38 40 40 40 40 40 40 40 39 39 39 38 37 37 38 41 46 49 50 50 53 57 58 55 52 51 49 48 47 46 45 45 45 45 43 40 39 38 38 38 37 36 36 36 33 30 28 26 25 23 22 23 23 22 23 26 26 25 24 24
27 30 32 34 37 40 42 44 44 45 46 46 45 44 43 43 43 42 42 43 47 50 53 55 58 60 61 59 56 53 51 50 49 49 47 45 46 45 41 39 38 37 37 37 37 36 34 32 30 28 26 24 21 20 20 20 23 26 27 26 24 24 23
26 28 29 31 32 34 36 39 41 44 47 49 50 50 50 50 50 49 48 47 48 51 53 56 58 59 61 63 62 59 55 53 51 51 49 47 48 47 42 39 38 38 37 37 36 34 32 30 29 27 24 19 17 18 18 20 26 29 27 24 23 22 20
25 26 28 29 30 32 33 34 35 38 41 46 49 51 52 54 54 54 54 53 52 53 53 53 55 55 55 59 64 63 58 54 54 54 52 49 49 47 42 38 38 38 38 37 35 33 31 29 27 24 20 18 18 18 19 25 31 32 28 25 23 20 18
24 25 26 27 28 30 32 33 33 34 35 38 43 45 46 48 49 50 52 51 51 52 52 50 50 49 48 52 60 63 61 59 58 54 50 48 47 45 41 39 39 39 38 36 34 32 29 26 23 20 19 20 20 20 24 31 33 30 25 22 19 18 17
24 24 24 25 26 27 29 30 31 33 33 35 37 39 41 44 45 46 48 48 49 50 49 47 48 52 53 54 59 62 60 58 56 50 44 44 43 40 39 40 40 39 37 35 32 28 25 23 21 20 20 20 20 24 30 31 28 23 20 19 18 18 17
18 18 20 22 23 23 23 24 25 28 29 29 30 32 33 34 38 43 45 44 44 47 47 45 45 50 55 59 61 60 54 49 47 42 38 37 36 35 37 37 36 36 34 31 27 24 22 21 20 19 19 20 24 27 28 25 21 19 19 19 19 18 17
Wind_Direction
231 230 227 230 232 234 238 236 231 230 230 230 230 230 231 230 229 226 222 220 219 220 219 220 224 227 226 223 221 225 229 231 231 229 227 226 226 228 226 218 210 204 201 201 198 193 192 196 201 205 201 195 206 220 226 234 247 258 267 279 290 297 306
231 232 229 231 233 235 238 235 233 233 230 228 229 232 233 231 228 225 222 219 217 217 219 220 223 226 228 225 222 223 227 228 226 224 223 221 220 222 221 215 205 198 197 198 197 194 194 198 202 207 206 200 210 227 240 244 251 261 267 274 282 288 296
231 234 233 233 233 235 236 234 234 234 229 228 231 232 230 226 223 221 219 217 216 215 217 220 222 225 228 227 224 223 225 226 224 222 221 218 216 218 217 213 205 198 197 198 198 197 197 199 203 210 213 209 215 230 247 257 258 262 267 274 281 286 291
227 230 233 233 233 233 235 235 235 231 227 228 229 227 226 224 223 222 220 218 217 216 217 220 222 225 227 228 227 225 224 224 221 219 218 217 215 215 214 212 207 200 198 199 199 200 201 201 204 210 216 218 223 233 247 260 266 267 269 275 283 287 289
222 226 230 231 231 231 233 236 234 230 226 225 226 224 224 226 227 227 224 219 216 216 216 220 223 226 227 228 229 227 225 223 221 217 216 215 214 214 212 210 208 205 201 202 204 204 206 206 207 213 219 224 230 238 247 257 267 273 275 278 284 286 288
219 223 228 229 228 227 230 231 228 227 227 226 225 226 226 227 228 227 225 221 217 214 214 216 219 223 224 225 227 226 224 221 219 217 215 215 215 213 211 209 209 208 206 206 208 209 211 212 212 218 225 231 237 243 250 257 266 274 278 281 283 286 287
219 221 226 227 226 226 227 227 225 226 230 231 231 233 232 229 226 226 226 223 217 213 211 212 216 220 221 221 223 224 222 219 218 217 215 214 215 214 212 210 210 209 210 210 211 212 215 217 219 224 230 236 241 248 255 261 266 273 279 283 285 286 288
221 221 223 224 224 226 222 221 224 226 228 231 233 233 230 226 223 224 226 224 219 214 212 212 215 219 220 219 220 220 220 219 218 217 216 215 215 214 212 211 210 211 213 213 213 216 219 221 225 230 234 239 244 250 255 260 266 272 279 285 288 288 289
219 219 221 222 222 220 214 216 224 228 228 229 230 230 226 221 219 220 223 224 221 218 217 215 215 218 220 220 220 220 219 219 219 218 216 215 215 215 214 212 212 213 215 215 216 219 222 224 228 233 237 241 244 247 253 259 265 272 279 285 288 290 291
216 216 220 220 216 211 211 217 223 226 229 229 230 231 228 222 218 217 220 222 222 222 222 220 217 218 220 220 220 220 220 220 220 219 217 216 216 215 215 214 214 215 217 217 219 222 224 227 230 234 236 238 242 247 253 260 266 272 278 283 287 288 289
215 215 218 221 221 217 217 221 222 223 226 229 231 232 229 222 217 215 217 219 220 222 222 221 220 221 222 220 220 220 221 221 221 220 218 216 216 216 215 215 216 217 218 219 221 222 224 227 230 231 232 235 243 251 257 263 267 272 276 279 282 283 284
217 217 218 222 224 225 226 227 226 225 226 229 233 234 233 228 220 215 216 219 220 221 222 222 222 224 223 221 221 221 221 222 222 222 219 216 215 215 215 216 216 217 218 220 222 222 223 225 226 226 229 236 245 252 258 264 267 270 274 276 278 280 281
219 217 220 226 227 226 229 230 230 230 229 230 234 236 237 235 227 219 218 220 221 222 223 222 223 226 226 223 222 222 222 223 224 223 220 217 215 215 216 217 217 217 219 221 222 221 220 221 221 223 229 236 244 250 257 263 268 272 277 281 282 283 283
221 221 222 226 227 225 225 226 228 230 229 230 233 234 236 236 230 224 221 221 223 224 224 224 224 227 228 225 224 223 222 223 224 223 220 217 215 215 216 216 216 217 219 221 222 221 220 219 219 223 230 236 242 249 256 262 270 277 283 286 287 285 284
221 227 227 227 226 225 223 225 227 226 225 227 229 228 230 230 227 225 223 223 225 227 228 227 227 229 229 228 227 225 222 221 222 221 220 217 215 215 215 214 215 216 218 220 222 222 221 220 222 226 232 238 244 252 258 265 274 281 286 288 287 286 286
223 227 226 224 225 226 225 226 229 225 220 221 223 224 224 225 224 223 222 223 225 228 230 230 230 231 232 231 231 228 222 219 221 220 219 217 216 216 216 215 214 215 217 219 220 222 222 223 226 230 235 240 248 254 260 268 278 283 286 287 287 288 291
228 227 226 225 227 232 233 232 229 222 217 216 218 220 220 221 222 221 222 223 224 226 229 230 230 231 233 234 233 230 223 219 219 219 219 218 217 217 217 216 216 216 217 218 219 220 223 226 228 232 237 243 249 254 261 271 280 283 284 286 288 292 295
222 222 225 228 230 234 234 233 228 217 212 211 213 217 218 219 221 223 225 226 225 225 227 229 229 229 232 234 234 230 224 220 219 220 220 219 218 217 217 218 218 219 218 218 219 221 224 228 230 233 238 244 248 253 261 271 276 277 281 286 291 296 297
217 218 224 230 234 235 232 231 227 215 210 211 213 217 218 219 221 225 229 232 231 229 227 227 227 228 229 232 234 232 226 220 219 220 221 220 218 217 217 218 219 219 220 220 220 223 226 228 230 234 238 244 248 253 261 268 271 274 281 289 294 297 295
227 227 232 234 235 239 240 231 220 212 211 213 215 221 227 229 229 229 233 237 239 237 232 228 226 226 227 229 233 233 229 222 219 220 221 221 220 217 217 218 219 220 221 222 223 224 226 228 231 235 239 244 247 251 257 263 269 276 283 289 294 293 292
238 234 234 237 237 239 241 234 223 216 214 214 218 230 242 243 239 235 236 240 243 243 239 233 228 226 225 227 230 233 230 225 221 220 221 221 220 219 218 218 220 221 222 223 224 226 227 229 232 236 240 242 245 249 253 259 271 281 284 288 289 289 290
238 238 237 240 242 238 234 232 232 229 225 226 232 241 244 241 239 239 240 243 244 244 242 237 230 226 224 224 227 230 231 228 223 220 221 221 220 220 219 219 220 221 222 223 225 226 227 229 233 237 240 242 244 246 248 257 273 281 283 285 285 286 288
208 219 225 232 238 235 230 231 235 236 238 242 246 248 245 240 240 243 246 247 246 244 242 239 233 229 226 224 225 227 228 228 225 222 221 222 221 220 221 221 222 222 223 224 225 226 227 230 235 239 241 242 244 245 247 259 275 283 285 287 287 287 288
198 198 204 212 219 222 223 227 233 238 242 246 248 250 250 248 247 249 250 247 244 242 241 240 236 233 230 228 227 226 226 226 225 223 223 223 222 221 222 223 223 223 224 225 226 228 229 232 237 241 241 242 243 244 250 264 277 285 289 293 295 295 293
216 216 215 215 214 215 218 223 228 233 238 241 244 248 251 250 250 252 251 245 239 238 239 240 239 239 237 235 233 230 227 224 223 223 223 224 223 222 223 224 226 226 226 228 229 229 230 234 238 240 241 242 242 245 254 267 277 283 291 301 306 302 295
228 229 230 229 226 225 228 233 235 236 238 239 241 245 249 249 249 253 254 246 238 235 237 240 242 243 242 241 238 235 231 226 222 221 222 223 224 223 223 225 227 228 228 229 230 231 233 236 239 240 240 239 240 245 253 264 274 283 294 305 307 300 291
239 236 234 234 236 237 240 244 246 246 246 245 241 241 245 248 250 253 254 248 241 239 241 244 245 247 248 249 248 245 239 232 226 222 220 221 222 222 222 223 225 228 230 231 232 233 235 237 239 239 236 233 237 243 252 262 273 282 291 299 299 292 286
248 247 243 240 241 242 245 248 250 252 253 251 246 240 239 246 251 253 254 253 249 245 245 247 249 251 254 255 255 256 252 241 233 226 221 219 220 221 221 222 223 226 228 231 233 234 236 238 238 234 230 230 235 244 254 266 275 281 287 292 291 286 282
249 249 248 245 243 244 246 248 249 251 251 249 244 238 236 242 248 250 253 256 256 253 250 251 253 256 257 256 255 255 255 248 240 234 227 220 218 219 219 220 222 223 225 229 231 232 234 235 232 228 226 230 238 248 261 272 277 279 283 288 288 282 279
251 250 247 245 245 245 246 247 247 248 246 241 238 238 241 244 247 249 250 252 255 255 254 253 255 256 256 256 255 253 251 248 245 241 235 227 219 216 218 218 219 221 223 225 227 230 231 229 225 224 225 231 242 256 266 273 276 278 283 288 286 279 274
252 253 250 248 247 247 246 247 247 248 247 243 241 244 249 252 252 251 250 249 248 249 250 252 253 254 254 253 252 250 248 247 246 246 243 235 223 216 216 217 217 218 220 222 225 227 226 222 221 222 226 236 251 262 267 271 275 280 286 290 285 277 273
253 255 254 253 252 252 253 254 254 253 253 252 250 250 253 256 256 255 254 252 247 245 246 248 248 249 251 252 248 244 243 244 245 246 246 239 227 219 217 218 218 218 219 220 223 223 220 218 219 222 232 246 258 264 267 273 281 287 291 289 282 275 272
259 259 260 259 258 258 258 260 260 259 258 257 256 255 256 258 259 259 259 257 253 249 250 251 249 246 246 246 244 240 238 240 242 244 244 238 227 219 217 217 218 218 218 218 219 218 216 217 221 229 241 252 259 264 270 280 291 294 290 281 274 270 266
266 266 265 264 263 263 263 264 264 263 261 260 260 259 259 260 262 263 262 261 259 256 256 258 258 253 247 244 241 236 232 234 238 241 241 235 224 217 215 216 216 216 214 213 213 213 214 219 228 237 243 249 255 264 275 289 297 293 283 273 269 265 259
272 272 271 269 267 266 267 268 269 267 266 265 264 263 263 264 265 266 265 264 264 264 263 264 262 256 248 243 240 236 230 229 232 236 235 228 219 213 213 214 212 210 207 207 207 210 216 224 231 235 240 249 258 267 283 293 292 285 278 272 267 259 250
278 277 275 272 269 267 266 266 268 268 268 268 268 267 268 270 271 271 270 269 268 268 268 269 266 258 249 241 239 236 232 228 228 229 227 221 215 211 208 206 204 202 201 203 207 213 219 224 226 233 246 255 260 274 289 291 285 279 274 267 256 245 241
283 280 275 271 268 266 264 264 265 267 268 270 271 270 270 270 270 270 270 268 266 264 263 264 263 260 259 254 245 236 231 228 226 223 218 215 213 208 201 197 196 197 199 204 209 214 216 219 227 240 252 258 268 283 288 283 274 267 258 246 236 233 234
284 282 279 275 270 266 264 263 263 265 268 272 274 275 276 278 278 274 268 262 260 257 255 256 256 254 259 260 249 235 228 227 224 218 211 206 201 193 189 190 195 199 202 206 209 211 217 227 239 250 260 270 278 280 276 267 257 247 238 231 229 228 230
Height
3127 3129 3131 3134 3136 3138 3140 3142 3144 3146 3147 3149 3150 3152 3153 3154 3155 3156 3158 3159 3160 3162 3163 3165 3166 3168 3169 3171 3173 3175 3177 3178 3179 3181 3182 3183 3185 3186 3187 3189 3191 3192 3194 3195 3196 3197 3199 3200 3201 3202 3202 3203 3204 3204 3205 3205 3205 3205 3205 3205 3205 3205 3205
3125 3126 3128 3130 3132 3135 3137 3139 3141 3142 3144 3146 3148 3149 3150 3151 3152 3154 3155 3157 3158 3160 3161 3162 3164 3165 3167 3169 3170 3172 3174 3175 3177 3178 3179 3181 3182 3184 3185 3187 3189 3191 3192 3193 3194 3196 3197 3198 3199 3200 3201 3202 3202 3203 3203 3204 3204 3204 3204 3204 3204 3204 3204
3123 3123 3124 3126 3128 3131 3133 3136 3138 3139 3141 3143 3144 3146 3147 3148 3150 3151 3153 3155 3156 3158 3159 3160 3161 3163 3165 3167 3168 3169 3171 3173 3174 3175 3177 3179 3180 3182 3183 3185 3187 3189 3190 3191 3193 3194 3195 3196 3197 3198 3199 3200 3201 3201 3201 3202 3202 3203 3202 3202 3202 3202 3202
3119 3119 3121 3123 3125 3128 3130 3132 3134 3136 3138 3139 3141 3143 3144 3146 3148 3150 3151 3153 3154 3155 3156 3158 3159 3161 3163 3164 3165 3166 3168 3170 3171 3173 3175 3177 3178 3180 3181 3183 3185 3187 3188 3190 3191 3192 3193 3194 3196 3197 3197 3198 3199 3199 3200 3200 3200 3201 3201 3201 3200 3200 3200
3115 3116 3118 3120 3123 3125 3127 3129 3131 3133 3135 3136 3138 3140 3142 3144 3146 3147 3149 3151 3152 3153 3155 3157 3158 3159 3161 3162 3163 3164 3166 3167 3169 3171 3172 3174 3176 3177 3179 3181 3183 3185 3186 3188 3189 3190 3192 3193 3194 3195 3195 3196 3197 3198 3198 3198 3198 3199 3199 3199 3199 3198 3198
3112 3114 3115 3117 3119 3122 3124 3126 3128 3130 3132 3134 3136 3138 3139 3141 3143 3145 3147 3148 3150 3151 3153 3154 3155 3156 3157 3159 3160 3162 3163 3165 3166 3168 3169 3171 3173 3174 3177 3179 3181 3183 3184 3186 3187 3188 3189 3190 3191 3192 3193 3194 3195 3196 3196 3196 3196 3196 3197 3197 3197 3197 3196
3109 3110 3111 3113 3116 3119 3122 3123 3125 3127 3129 3132 3134 3135 3137 3138 3140 3142 3144 3146 3147 3149 3150 3151 3152 3153 3155 3156 3158 3159 3160 3162 3163 3165 3167 3169 3170 3172 3174 3176 3178 3180 3182 3184 3185 3186 3187 3188 3189 3190 3191 3192 3193 3193 3194 3194 3194 3194 3194 3194 3195 3194 3194
3106 3107 3108 3110 3113 3116 3119 3120 3122 3124 3127 3129 3131 3132 3133 3135 3137 3139 3141 3143 3145 3146 3147 3149 3150 3151 3153 3154 3155 3156 3158 3160 3161 3162 3164 3166 3167 3169 3171 3173 3175 3178 3179 3181 3183 3184 3185 3186 3187 3188 3189 3190 3190 3191 3191 3192 3192 3192 3191 3192 3192 3192 3192
3103 3105 3107 3109 3112 3114 3116 3117 3119 3121 3124 3126 3127 3128 3130 3131 3134 3136 3138 3140 3142 3143 3144 3146 3148 3149 3151 3152 3153 3154 3156 3157 3158 3160 3161 3163 3164 3166 3168 3170 3173 3175 3176 3179 3180 3181 3182 3183 3184 3185 3186 3187 3188 3188 3189 3189 3189 3189 3189 3189 3189 3189 3189
3100 3102 3104 3107 3109 3111 3113 3114 3116 3118 3121 3123 3124 3125 3126 3128 3131 3133 3135 3137 3138 3140 3142 3144 3145 3147 3148 3149 3150 3152 3153 3154 3156 3157 3158 3160 3162 3164 3166 3168 3170 3172 3174 3176 3177 3178 3180 3181 3182 3183 3183 3184 3185 3185 3186 3186 3187 3187 3186 3186 3186 3186 3186
3096 3098 3101 3104 3106 3108 3110 3111 3113 3115 3117 3119 3121 3122 3124 3125 3128 3130 3132 3133 3135 3137 3139 3141 3143 3144 3145 3147 3148 3149 3150 3151 3153 3154 3155 3157 3159 3161 3163 3164 3166 3169 3171 3173 3174 3175 3177 3178 3179 3180 3181 3181 3182 3183 3183 3183 3184 3184 3184 3184 3184 3184 3183
3093 3096 3099 3101 3102 3104 3106 3108 3110 3113 3114 3116 3118 3119 3121 3123 3125 3127 3129 3130 3132 3134 3136 3138 3140 3141 3142 3144 3145 3146 3147 3149 3150 3151 3153 3155 3156 3158 3159 3161 3163 3166 3168 3169 3171 3172 3174 3175 3176 3177 3178 3179 3179 3180 3180 3180 3180 3181 3181 3181 3181 3181 3180
3090 3093 3095 3097 3099 3101 3104 3106 3107 3109 3111 3113 3115 3117 3118 3120 3122 3124 3125 3127 3128 3130 3132 3135 3136 3138 3139 3140 3142 3143 3144 3146 3147 3149 3151 3152 3153 3155 3156 3158 3160 3162 3164 3166 3168 3169 3170 3172 3173 3175 3175 3176 3176 3177 3177 3177 3177 3178 3178 3178 3178 3178 3177
3089 3091 3092 3094 3096 3099 3101 3103 3105 3107 3108 3111 3113 3114 3116 3117 3119 3121 3122 3124 3125 3127 3129 3131 3133 3134 3135 3137 3138 3140 3141 3143 3144 3146 3148 3150 3151 3152 3153 3155 3157 3159 3161 3163 3164 3166 3168 3169 3171 3172 3172 3173 3173 3174 3174 3174 3174 3175 3175 3175 3175 3175 3174
3087 3088 3089 3092 3094 3096 3098 3100 3102 3104 3106 3108 3110 3111 3113 3114 3116 3117 3119 3121 3122 3124 3126 3128 3129 3131 3132 3133 3135 3136 3138 3140 3142 3143 3145 3146 3147 3148 3150 3152 3153 3156 3157 3159 3161 3163 3165 3166 3168 3168 3169 3170 3170 3171 3171 3171 3172 3172 3172 3172 3172 3171 3171
3082 3084 3086 3089 3091 3093 3095 3097 3099 3101 3102 3105 3107 3109 3110 3112 3113 3114 3115 3117 3119 3120 3122 3124 3126 3127 3128 3130 3132 3133 3135 3137 3138 3140 3141 3143 3144 3145 3146 3148 3150 3152 3154 3155 3158 3159 3161 3163 3164 3165 3166 3166 3167 3167 3168 3168 3169 3169 3169 3169 3169 3168 3167
3080 3082 3085 3087 3089 3090 3092 3094 3096 3098 3100 3102 3105 3106 3108 3109 3110 3111 3112 3114 3115 3117 3119 3120 3122 3123 3125 3126 3129 3130 3132 3134 3135 3136 3137 3139 3140 3142 3143 3145 3147 3149 3150 3152 3154 3156 3158 3159 3160 3161 3162 3163 3164 3164 3165 3165 3166 3166 3166 3166 3165 3164 3163
3078 3081 3084 3086 3087 3088 3089 3091 3093 3095 3097 3100 3102 3104 3105 3106 3107 3108 3109 3111 3112 3114 3115 3116 3118 3119 3121 3123 3125 3126 3129 3131 3132 3133 3134 3135 3137 3138 3140 3142 3144 3145 3147 3149 3151 3153 3155 3156 3157 3158 3159 3160 3161 3161 3162 3162 3163 3163 3162 3162 3161 3160 3158
3076 3078 3080 3083 3084 3085 3086 3088 3091 3093 3095 3098 3100 3101 3103 3104 3104 3105 3107 3108 3109 3110 3111 3112 3113 3115 3117 3119 3120 3122 3125 3127 3128 3129 3130 3131 3133 3135 3137 3139 3140 3141 3143 3145 3148 3150 3151 3152 3154 3155 3156 3157 3158 3158 3159 3159 3159 3159 3159 3158 3157 3156 3154
3074 3075 3076 3079 3082 3084 3085 3087 3089 3091 3093 3095 3097 3099 3100 3101 3102 3103 3104 3105 3106 3107 3107 3108 3109 3111 3113 3115 3116 3118 3121 3123 3124 3126 3127 3128 3130 3132 3134 3135 3136 3138 3140 3142 3144 3146 3147 3149 3150 3151 3153 3154 3154 3155 3156 3156 3156 3156 3156 3155 3153 3152 3151
3071 3073 3073 3075 3078 3081 3083 3085 3087 3089 3091 3092 3094 3096 3097 3097 3098 3100 3101 3101 3102 3103 3104 3105 3105 3106 3108 3110 3112 3114 3116 3118 3120 3122 3123 3125 3127 3128 3130 3131 3133 3135 3137 3139 3140 3142 3144 3146 3147 3148 3149 3151 3151 3152 3153 3153 3153 3153 3153 3152 3150 3149 3148
3068 3070 3071 3072 3074 3076 3079 3082 3084 3086 3088 3089 3090 3092 3092 3093 3094 3095 3096 3097 3098 3099 3100 3101 3102 3103 3104 3106 3108 3110 3111 3114 3116 3118 3119 3121 3123 3124 3126 3128 3129 3132 3133 3135 3137 3139 3141 3142 3143 3145 3146 3147 3148 3149 3149 3150 3150 3150 3150 3149 3148 3146 3144
3064 3066 3068 3070 3071 3073 3076 3078 3080 3083 3084 3085 3086 3087 3088 3089 3090 3091 3092 3093 3094 3095 3096 3097 3098 3099 3100 3101 3103 3105 3107 3109 3112 3114 3116 3117 3119 3120 3122 3124 3126 3128 3130 3132 3133 3135 3137 3138 3140 3141 3142 3143 3144 3145 3146 3146 3147 3147 3146 3146 3144 3143 3141
3061 3062 3064 3066 3068 3071 3073 3075 3077 3079 3081 3082 3083 3084 3085 3086 3087 3087 3088 3089 3090 3091 3092 3093 3094 3096 3097 3098 3100 3101 3103 3105 3108 3110 3112 3113 3115 3117 3119 3121 3123 3125 3126 3128 3130 3132 3134 3135 3136 3137 3138 3139 3140 3141 3142 3143 3143 3143 3143 3141 3140 3139 3138
3060 3061 3062 3063 3065 3067 3069 3072 3074 3076 3077 3078 3079 3080 3082 3083 3084 3084 3085 3086 3087 3087 3088 3089 3090 3092 3094 3096 3097 3098 3099 3101 3103 3106 3108 3110 3112 3114 3115 3117 3119 3121 3123 3125 3127 3129 3130 3131 3132 3133 3134 3136 3137 3138 3138 3138 3139 3139 3138 3137 3136 3135 3134
3057 3058 3060 3061 3062 3063 3065 3066 3068 3070 3072 3073 3075 3077 3078 3079 3080 3081 3082 3083 3083 3083 3084 3085 3088 3090 3091 3093 3094 3094 3095 3097 3099 3101 3104 3106 3108 3110 3112 3113 3115 3117 3120 3121 3123 3124 3126 3127 3129 3130 3131 3132 3133 3134 3134 3134 3134 3134 3133 3132 3131 3130 3129
3052 3054 3056 3057 3058 3060 3061 3062 3063 3065 3066 3068 3071 3073 3074 3075 3076 3076 3078 3079 3079 3079 3081 3083 3085 3087 3088 3089 3090 3091 3091 3093 3094 3096 3098 3101 3103 3105 3107 3109 3111 3114 3116 3117 3119 3121 3123 3124 3125 3126 3127 3128 3129 3129 3129 3129 3130 3129 3129 3127 3126 3125 3125
3049 3050 3051 3052 3053 3055 3057 3058 3060 3060 3062 3063 3065 3067 3068 3070 3071 3072 3073 3074 3074 3076 3079 3080 3081 3083 3083 3084 3085 3086 3087 3087 3089 3090 3092 3095 3097 3100 3103 3105 3108 3110 3112 3114 3116 3118 3119 3121 3122 3122 3123 3124 3124 3125 3125 3126 3126 3125 3125 3123 3121 3121 3121
3045 3046 3047 3048 3048 3050 3052 3053 3055 3056 3057 3058 3059 3061 3063 3065 3066 3067 3068 3068 3070 3073 3074 3075 3076 3077 3078 3078 3079 3080 3081 3082 3083 3084 3086 3088 3091 3094 3098 3101 3103 3105 3108 3110 3112 3114 3115 3117 3118 3118 3119 3120 3121 3121 3121 3122 3122 3122 3121 3119 3118 3118 3118
3041 3042 3043 3043 3044 3045 3047 3049 3049 3050 3052 3053 3055 3057 3059 3060 3061 3062 3061 3062 3065 3067 3067 3068 3070 3070 3071 3072 3073 3074 3075 3076 3077 3079 3080 3083 3086 3089 3093 3096 3098 3101 3103 3105 3108 3110 3111 3112 3113 3115 3116 3117 3117 3118 3118 3118 3118 3118 3117 3115 3114 3114 3114
3038 3038 3039 3039 3040 3042 3044 3045 3045 3045 3046 3048 3050 3052 3053 3055 3056 3056 3057 3058 3059 3059 3060 3061 3062 3063 3064 3066 3067 3069 3069 3070 3072 3073 3074 3077 3081 3084 3087 3090 3093 3095 3098 3100 3103 3105 3106 3108 3110 3111 3112 3113 3114 3114 3115 3115 3114 3114 3113 3112 3110 3110 3109
3034 3034 3035 3035 3036 3038 3039 3040 3041 3041 3042 3042 3044 3045 3047 3048 3049 3050 3051 3052 3052 3052 3053 3053 3054 3057 3059 3059 3060 3061 3062 3063 3065 3066 3068 3071 3075 3078 3081 3085 3088 3090 3092 3095 3098 3100 3102 3104 3106 3108 3109 3110 3110 3111 3111 3111 3111 3110 3109 3108 3106 3106 3105
3030 3030 3031 3031 3032 3033 3034 3035 3035 3036 3037 3037 3038 3040 3041 3041 3042 3043 3044 3045 3046 3046 3045 3045 3047 3050 3051 3051 3052 3052 3053 3054 3056 3059 3061 3064 3068 3072 3075 3079 3082 3085 3087 3090 3093 3095 3098 3101 3103 3104 3105 3106 3106 3106 3106 3106 3106 3105 3104 3103 3103 3103 3102
3026 3026 3027 3028 3029 3029 3030 3030 3030 3031 3032 3032 3033 3035 3035 3035 3036 3037 3038 3039 3039 3039 3039 3040 3041 3042 3043 3044 3044 3042 3042 3044 3048 3051 3053 3055 3060 3065 3069 3073 3077 3080 3083 3086 3089 3092 3095 3097 3099 3100 3101 3102 3102 3102 3101 3101 3100 3099 3099 3099 3099 3100 3100
3023 3023 3023 3024 3024 3025 3025 3026 3026 3026 3026 3027 3028 3029 3030 3030 3029 3030 3031 3031 3031 3031 3032 3033 3034 3035 3037 3038 3036 3033 3034 3036 3038 3041 3043 3047 3052 3058 3064 3069 3073 3076 3079 3082 3085 3088 3091 3093 3095 3096 3097 3097 3097 3096 3096 3095 3094 3094 3094 3095 3096 3097 3097
3020 3019 3019 3019 3019 3020 3020 3021 3021 3021 3021 3022 3022 3023 3023 3023 3023 3023 3022 3021 3022 3022 3022 3023 3025 3027 3031 3033 3030 3027 3028 3029 3030 3033 3036 3041 3047 3053 3058 3064 3069 3072 3076 3078 3081 3083 3086 3088 3090 3091 3092 3092 3092 3091 3090 3090 3090 3090 3091 3091 3092 3093 3093
3016 3015 3015 3014 3015 3015 3015 3015 3016 3016 3016 3015 3015 3015 3016 3016 3016 3015 3013 3012 3012 3012 3013 3015 3016 3017 3024 3029 3026 3022 3023 3025 3028 3031 3035 3039 3045 3050 3055 3061 3065 3069 3072 3074 3076 3079 3081 3083 3085 3086 3087 3087 3086 3085 3085 3086 3086 3087 3087 3088 3089 3090 3091
3012 3012 3011 3011 3011 3011 3010 3010 3010 3010 3009 3009 3008 3008 3008 3008 3006 3005 3004 3003 3003 3003 3003 3006 3006 3007 3015 3022 3021 3018 3020 3024 3027 3031 3034 3038 3044 3049 3054 3059 3064 3066 3068 3070 3072 3075 3077 3078 3080 3081 3081 3081 3081 3081 3082 3082 3083 3083 3085 3085 3086 3087 3088